OrbAstro-TR2

operational
NORAD ID: 59125 Int'l Des: NNA 2024-043 Owner: ORBAS Country: UK
LEOCIRCULARRETROGRADESSO

About OrbAstro-TR2

Description loading...

Live Position

Loading 3D Globe...

Upcoming Passes

Altitude History

Altitude vs Time

uPlot chart will show altitude changes over time

Two-Line Element Set

1 59125U 24043AD 26062.33765792 .00012527 00000-0 38249-3 0 9999
2 59125 97.5457 200.7090 0008668 246.4978 113.5354 15.34015883111022
Epoch: Mar 3, 2026 • Age: 24 hours

Current Status

Altitude 477.4 km
Velocity 7.63 km/s
Sub-Earth Point -39.17°S, 51.96°E
Launch Date Mar 4, 2024
Age 1.9 years
Type other

Technical Details

Classification Payload
Mass 10.00 kg
Dry Mass 10.00 kg
Total Mass 10.00 kg
Length 0.30 m
Diameter 0.20 m
Span 0.30 m
Shape Box+2 pan
Manufacturer ORBAS
Bus Type Cubesat 6U
Phase Status In Orbit
Owner/State ORBAS/UK

Large Constellations

Loading constellations...